Home   Weather   Pembroke Pines   Past weeks

Flag for USA Past Weather in Pembroke Pines, Florida, USA — Yesterday and Last 2 Weeks

Now
79 °F

Passing clouds.


Feels Like: 82 °F
Forecast: 78 / 85 °F
Wind: 15 mph from Southeast

Location: North Perry Airport

Current Time: Apr 29, 2017 at 3:48:47 am

Latest Report: Apr 29, 2017 at 2:53 am


Visibility: 10 mi

Pressure: 30.09 "Hg

Humidity: 79%

Dew Point: 72 °F

Location of Pembroke PinesLocation

Past Weather in Pembroke Pines — Graph

°F

Pembroke Pines Temperature Yesterday

Maximum temperature yesterday: 87 °F (at 12:53 pm)
Minimum temperature yesterday: 78 °F (at 1:53 am)
Average temperature yesterday: 82 °F

High & Low Weather Summary for the Past Weeks

 TemperatureHumidityPressure
High89 °F (Apr 24, 2:53 pm)100% (Apr 24, 9:00 am)30.23 "Hg (Apr 24, 9:00 am)
Low64 °F (Apr 26, 5:53 am)37% (Apr 25, 3:53 pm)29.72 "Hg (Apr 24, 4:53 pm)
Average77 °F68%30.00 "Hg
* Reported Apr 14 2:53 am — Apr 29 2:32 am, Pembroke Pines, Weather by CustomWeather, © 2017

Note: Actual official high and low records may vary slightly from our data, if they occured in-between our weather recording intervals... More about our weather records

Advertising

Pembroke Pines Weather History for the Previous 24 Hours

Scroll right to see more
 ConditionsComfort  
Time TempWeatherWind HumidityBarometerVisibility
2:32 am
Sat, Apr 29
79 °FPassing clouds.14 mph82%30.09 "Hg10 mi
2:22 am79 °FPartly cloudy.16 mph79%30.09 "Hg10 mi
2:08 am79 °FPartly cloudy.20 mph82%30.09 "Hg10 mi
12:53 am80 °FPassing clouds.21 mph76%30.10 "Hg10 mi
12:25 am80 °FPartly cloudy.15 mph76%30.11 "Hg10 mi
11:53 pm
Fri, Apr 28
80 °FPassing clouds.17 mph79%30.11 "Hg10 mi
11:36 pm80 °FPartly cloudy.16 mph79%30.12 "Hg10 mi
10:53 pm80 °FPassing clouds.18 mph79%30.12 "Hg10 mi
9:53 pm80 °FPartly cloudy.15 mph79%30.12 "Hg10 mi
9:00 pm80 °FPassing clouds.16 mph81%30.10 "Hg10 mi
7:53 pm80 °FPassing clouds.13 mph81%30.09 "Hg10 mi
6:53 pm81 °FScattered clouds.15 mph74%30.07 "Hg10 mi
5:53 pm84 °FScattered clouds.15 mph67%30.06 "Hg10 mi
4:53 pm84 °FScattered clouds.20 mph65%30.07 "Hg10 mi
3:53 pm86 °FScattered clouds.16 mph61%30.07 "Hg10 mi
2:53 pm86 °FScattered clouds.16 mph61%30.09 "Hg10 mi
2:00 pm87 °FPartly sunny.13 mph59%30.10 "Hg10 mi
12:53 pm87 °FScattered clouds.16 mph57%30.10 "Hg10 mi
11:53 am86 °FScattered clouds.17 mph59%30.10 "Hg10 mi
10:53 am85 °FScattered clouds.13 mph63%30.10 "Hg10 mi
10:01 am82 °FScattered clouds.13 mph65%30.09 "Hg10 mi
8:53 am82 °FPassing clouds.12 mph70%30.07 "Hg10 mi
7:53 am80 °FSunny.9 mph76%30.06 "Hg10 mi
6:53 am78 °FSunny.8 mph82%30.03 "Hg10 mi
5:53 am78 °FPassing clouds.12 mph84%30.01 "Hg10 mi
4:53 am79 °FPassing clouds.10 mph82%29.99 "Hg10 mi
4:27 am79 °FPassing clouds.10 mph82%29.99 "Hg10 mi
Weather by CustomWeather, © 2017

See weather overviewHow to use our weather pages